Corpus Christi, TX

10:56 AM CDT on July 23, 2017 (GMT -0500)
Corpus Christi International

Weather History for KCRP - October, 2013

Change the Weather History Date:

Monday, October 21, 2013

  Actual Average Record
Temperature  
Mean Temperature 77 °F 74 °F  
Max Temperature 84 °F 84 °F 94 °F (2004)
Min Temperature 70 °F 64 °F 43 °F (1964)
Degree Days  
Heating Degree Days 0 0  
Month to date heating degree days 0 0  
Since 1 July heating degree days 0 0  
Cooling Degree Days 12 9  
Month to date cooling degree days 279 231  
Year to date cooling degree days 3874 3274  
Growing Degree Days 25 (Base 50)    
Moisture  
Dew Point 69 °F    
Average Humidity 81    
Maximum Humidity 97    
Minimum Humidity 65    
Precipitation  
Precipitation 1.51 in 0.13 in 2.47 in (1983)
Month to date precipitation 2.45 2.56  
Year to date precipitation 19.77 26.88  
Snow  
Snow 0.00 in - - ()
Month to date snowfall 0.0  
Since 1 July snowfall 0.0  
Since 1 September snowfall 0.0  
Snow Depth 0.00 in    
Sea Level Pressure  
Sea Level Pressure 29.90 in    
Wind  
Wind Speed 6 mph (ENE)    
Max Wind Speed 23 mph    
Max Gust Speed 25 mph    
Visibility 9 miles    
Events Rain , Thunderstorm    
T = Trace of Precipitation, MM = Missing Value Source: NWS Daily Summary

Daily Weather History Graph

Daily Weather History Graph

Search for Another Location

Airport or City:

Trip Planner

Search our weather history database for the weather conditions in past years. The results will help you decide how hot, cold, wet, or windy it might be!

Date:

Astronomy

Oct. 21, 2013 Rise Set
Actual Time 7:33 AM CDT 6:54 PM CDT
Civil Twilight 7:10 AM CDT 7:18 PM CDT
Nautical Twilight 6:42 AM CDT 7:45 PM CDT
Astronomical Twilight 6:15 AM CDT 8:13 PM CDT
Moon 9:00 PM CDT (10/21) 9:58 AM CDT (10/21)
Length of Visible Light 12h 08m
Length of Day
11h 20m
Waning Gibbous, 92% of the Moon is Illuminated
Oct 21
Waning Gibbous
Oct 26
Last Quarter
Nov 3
New
Nov 9
First Quarter
Nov 17
Full

Hourly Weather History & Observations

Time (CDT) Temp. Heat Index Dew Point Humidity Pressure Visibility Wind Dir Wind Speed Gust Speed Precip Events Conditions
12:51 AM 73.0 °F - 64.0 °F 73% 29.93 in 10.0 mi East 5.8 mph - N/A   Overcast
1:51 AM 73.9 °F - 64.9 °F 73% 29.93 in 10.0 mi East 3.5 mph - N/A   Overcast
2:51 AM 73.0 °F - 66.0 °F 79% 29.92 in 10.0 mi NE 3.5 mph - N/A   Overcast
3:51 AM 73.9 °F - 66.9 °F 79% 29.90 in 10.0 mi Calm Calm - N/A   Overcast
4:02 AM 73.4 °F - 66.2 °F 78% 29.90 in 10.0 mi East 3.5 mph - N/A Thunderstorm Thunderstorm
4:48 AM 73.4 °F - 68.0 °F 83% 29.89 in 10.0 mi NNE 3.5 mph - N/A   Overcast
4:51 AM 73.9 °F - 68.0 °F 82% 29.88 in 10.0 mi NNE 3.5 mph - N/A   Overcast
5:51 AM 73.9 °F - 68.0 °F 82% 29.89 in 10.0 mi Calm Calm - N/A   Overcast
6:51 AM 72.0 °F - 66.9 °F 84% 29.88 in 10.0 mi NE 3.5 mph - 0.00 in   Scattered Clouds
7:51 AM 73.0 °F - 69.1 °F 87% 29.90 in 10.0 mi Calm Calm - N/A   Mostly Cloudy
8:51 AM 77.0 °F - 70.0 °F 79% 29.92 in 10.0 mi NE 5.8 mph - 0.00 in   Mostly Cloudy
9:51 AM 79.0 °F - 69.1 °F 72% 29.92 in 10.0 mi ESE 12.7 mph - N/A   Scattered Clouds
10:51 AM 82.9 °F 87.0 °F 70.0 °F 65% 29.91 in 10.0 mi ESE 15.0 mph - N/A   Mostly Cloudy
11:51 AM 82.0 °F 85.9 °F 70.0 °F 67% 29.92 in 10.0 mi SSE 8.1 mph - N/A   Mostly Cloudy
12:51 PM 82.9 °F 87.0 °F 70.0 °F 65% 29.90 in 10.0 mi ESE 8.1 mph - N/A   Mostly Cloudy
1:51 PM 82.9 °F 87.0 °F 70.0 °F 65% 29.87 in 10.0 mi ESE 8.1 mph - N/A   Mostly Cloudy
2:07 PM 78.8 °F - 73.4 °F 83% 29.87 in 2.5 mi East 12.7 mph - 0.04 in Rain Heavy Rain
2:09 PM 78.8 °F - 73.4 °F 83% 29.87 in 7.0 mi East 11.5 mph - 0.05 in Rain Heavy Rain
2:51 PM 78.1 °F - 75.0 °F 90% 29.85 in 10.0 mi East 12.7 mph - 0.12 in Rain Light Rain
3:22 PM 78.8 °F - 73.4 °F 83% 29.84 in 10.0 mi East 12.7 mph - 0.00 in Thunderstorm Thunderstorm
3:37 PM 78.8 °F - 73.4 °F 83% 29.85 in 10.0 mi East 13.8 mph - 0.00 in Rain Light Rain
3:51 PM 75.9 °F - 73.0 °F 91% 29.85 in 4.0 mi East 17.3 mph - 0.02 in Rain Heavy Rain
4:00 PM 73.4 °F - 69.8 °F 88% 29.87 in 1.5 mi NNE 23.0 mph - 0.03 in Rain , Thunderstorm Heavy Thunderstorms and Rain
4:08 PM 71.6 °F - 69.8 °F 94% 29.88 in 1.5 mi NNE 11.5 mph - 0.41 in Rain , Thunderstorm Heavy Thunderstorms and Rain
4:28 PM 69.8 °F - 68.0 °F 94% 29.88 in 1.0 mi WNW 3.5 mph - 0.99 in Rain , Thunderstorm Heavy Thunderstorms and Rain
4:37 PM 69.8 °F - 66.2 °F 88% 29.85 in 2.0 mi SE 4.6 mph - 1.25 in Rain , Thunderstorm Heavy Thunderstorms and Rain
4:51 PM 71.1 °F - 68.0 °F 90% 29.86 in 5.0 mi East 9.2 mph - 1.35 in Rain , Thunderstorm Thunderstorms and Rain
5:48 PM 71.6 °F - 66.2 °F 83% 29.87 in 10.0 mi ESE 11.5 mph - 0.02 in Rain Light Rain
5:51 PM 71.1 °F - 66.9 °F 87% 29.87 in 10.0 mi ESE 10.4 mph - 0.02 in Rain Light Rain
6:51 PM 71.1 °F - 66.9 °F 87% 29.87 in 10.0 mi Calm Calm - N/A   Mostly Cloudy
7:51 PM 70.0 °F - 66.9 °F 90% 29.92 in 10.0 mi East 4.6 mph - N/A   Scattered Clouds
8:24 PM 69.8 °F - 66.2 °F 88% 29.93 in 10.0 mi Calm Calm - N/A   Mostly Cloudy
8:39 PM 69.8 °F - 66.2 °F 88% 29.93 in 10.0 mi Calm Calm - N/A   Partly Cloudy
8:51 PM 70.0 °F - 66.9 °F 90% 29.92 in 10.0 mi Calm Calm - N/A   Partly Cloudy
9:51 PM 71.1 °F - 68.0 °F 90% 29.94 in 10.0 mi NE 5.8 mph - N/A   Mostly Cloudy
9:55 PM 71.6 °F - 68.0 °F 88% 29.95 in 10.0 mi NE 5.8 mph - N/A   Mostly Cloudy
10:51 PM 71.1 °F - 69.1 °F 93% 29.96 in 10.0 mi NE 6.9 mph - N/A   Overcast
11:03 PM 71.6 °F - 69.8 °F 94% 29.95 in 10.0 mi NNE 8.1 mph - N/A   Mostly Cloudy
11:23 PM 71.6 °F - 68.0 °F 88% 29.96 in 10.0 mi North 4.6 mph - N/A   Partly Cloudy
11:51 PM 70.0 °F - 68.0 °F 93% 29.96 in 10.0 mi North 6.9 mph - N/A   Scattered Clouds
11:54 PM 69.8 °F - 68.0 °F 94% 29.96 in 10.0 mi North 6.9 mph - N/A   Mostly Cloudy